Location: Bougoura
(13.1861°N, 5.0773°W)
Time: 09:58:42
(UTC+00:00)

Okean O Rocket - Pass Details

Date: 17 January 2021
Orbit: 622 x 645 km, 98.2° (Epoch: 25 February)

Event Time Altitude Azimuth Distance (km) Brightness Sun altitude
Rises 18:33:03 0° 177° (S) 2,942 5.3 -5.2°
Reaches altitude 10° 18:35:17 10° 182° (S) 2,035 4.5 -5.7°
Maximum altitude 18:39:37 53° 259° (WSW) 788 2.6 -6.7°
Drops below altitude 10° 18:43:57 10° 336° (NNW) 2,036 4.3 -7.7°
Sets 18:46:12 0° 341° (NNW) 2,944 5.0 -8.2°
